This is the latest recevied weather packets stored in our database for station/object N1CTF-9. If no packets are shown the sender has not sent any weather packets the latest 10 day(s).
| Time | Temp. | Humidity | Pressure | Rain* | Wind** | Luminosity | Snow |
|---|---|---|---|---|---|---|---|
| 1777417590 | 20.56° C | 58% | 1011.1 hPa | 0 mm | - | 429 W/m² | - |
| 1777416990 | 20.56° C | 57% | 1011.3 hPa | 0 mm | - | 640 W/m² | - |
| 1777416390 | 20.56° C | 58% | 1011.7 hPa | 0 mm | - | 868 W/m² | - |
| 1777415790 | 20.56° C | 57% | 1011.3 hPa | 0 mm | - | 973 W/m² | - |
| 1777415190 | 21.11° C | 57% | 1011.6 hPa | 0 mm | - | 861 W/m² | - |
| 1777414590 | 21.11° C | 57% | 1011.8 hPa | 0 mm | - | 993 W/m² | - |
| 1777413990 | 21.67° C | 58% | 1011.8 hPa | 0 mm | - | 110 W/m² | - |
| 1777413389 | 21.67° C | 57% | 1011.4 hPa | 0 mm | - | 975 W/m² | - |
| 1777412790 | 21.67° C | 56% | 1011.3 hPa | 0 mm | - | 124 W/m² | - |
| 1777412190 | 21.67° C | 57% | 1011.1 hPa | 0 mm | - | 152 W/m² | - |
| 1777411590 | 21.67° C | 58% | 1011 hPa | 0 mm | - | 146 W/m² | - |
| 1777410990 | 21.67° C | 56% | 1011.4 hPa | 0 mm | - | 213 W/m² | - |
| 1777410390 | 21.11° C | 58% | 1011.5 hPa | 0 mm | - | 338 W/m² | - |
| 1777409790 | 22.22° C | 56% | 1011.4 hPa | 0 mm | - | 218 W/m² | - |
| 1777409190 | 22.78° C | 58% | 1011.5 hPa | 0 mm | - | 126 W/m² | - |
| 1777408590 | 21.67° C | 59% | 1011.2 hPa | 0 mm | - | 708 W/m² | - |
| 1777407990 | 21.67° C | 57% | 1011.4 hPa | 0 mm | - | 765 W/m² | - |
| 1777407390 | 21.11° C | 61% | 1011.6 hPa | 0 mm | - | 508 W/m² | - |
| 1777406789 | 22.22° C | 58% | 1011.2 hPa | 0 mm | - | 246 W/m² | - |
| 1777406190 | 21.67° C | 58% | 1011.4 hPa | 0 mm | - | 898 W/m² | - |
| 1777405589 | 21.67° C | 60% | 1011.6 hPa | 0 mm | - | 866 W/m² | - |
| 1777404990 | 21.11° C | 61% | 1011.5 hPa | 0 mm | - | 994 W/m² | - |
| 1777404390 | 21.11° C | 61% | 1011.8 hPa | 0 mm | - | 741 W/m² | - |
| 1777403790 | 20.56° C | 61% | 1012 hPa | 0 mm | - | 100 W/m² | - |
| 1777403190 | 21.11° C | 61% | 1011.9 hPa | 0 mm | - | 906 W/m² | - |
* Rain latest hour (hover to see other rain measurements)
** Current wind speed in m/s (hover to see current wind gust speed)